Time,TemperatureF,DewpointF,PressureIn,WindDirection,WindDirectionDegrees,WindSpeedMPH,WindSpeedGustMPH,Humidity,HourlyPrecipIn,Conditions,Clouds,dailyrainin,SolarRadiationWatts/m^2,SoftwareType,DateUTC
2013-07-26 00:01:00,63.6,57.0,29.98,NNE,13,0.0,13.0,79,0.00,,,0.00,0,Wunderground v.1.15,2013-07-26 04:01:00,
2013-07-26 00:02:00,63.6,57.0,29.98,NNE,13,0.0,13.0,79,0.00,,,0.00,0,Wunderground v.1.15,2013-07-26 04:02:00,
2013-07-26 00:04:00,63.5,56.9,29.98,NNE,13,0.0,13.0,79,0.00,,,0.00,0,Wunderground v.1.15,2013-07-26 04:04:00,
2013-07-26 00:05:00,63.5,57.2,29.98,NNE,13,0.0,13.0,80,0.00,,,0.00,0,Wunderground v.1.15,2013-07-26 04:05:00,
2013-07-26 00:06:00,63.5,57.2,29.98,NNE,13,0.0,13.0,80,0.00,,,0.00,0,Wunderground v.1.15,2013-07-26 04:06:00,
2013-07-26 00:08:00,63.5,56.9,29.98,NNE,13,0.0,13.0,79,0.00,,,0.00,0,Wunderground v.1.15,2013-07-26 04:08:00,
2013-07-26 00:10:00,63.5,56.9,29.97,NNE,13,0.0,13.0,79,0.00,,,0.00,0,Wunderground v.1.15,2013-07-26 04:10:00,
2013-07-26 00:12:00,63.4,57.1,29.97,NNE,13,0.0,13.0,80,0.00,,,0.00,0,Wunderground v.1.15,2013-07-26 04:12:00,
2013-07-26 00:14:00,63.4,57.1,29.97,NNE,13,0.0,13.0,80,0.00,,,0.00,0,Wunderground v.1.15,2013-07-26 04:14:00,
2013-07-26 00:16:00,63.4,57.1,29.97,NNE,13,0.0,13.0,80,0.00,,,0.00,0,Wunderground v.1.15,2013-07-26 04:16:00,
2013-07-26 00:22:00,63.3,57.0,29.97,NNE,13,0.0,13.0,80,0.00,,,0.00,0,Wunderground v.1.15,2013-07-26 04:22:00,
2013-07-26 00:23:00,63.3,57.0,29.97,NNE,13,0.0,13.0,80,0.00,,,0.00,0,Wunderground v.1.15,2013-07-26 04:23:00,
2013-07-26 00:24:00,63.3,57.0,29.97,NNE,13,0.0,13.0,80,0.00,,,0.00,0,Wunderground v.1.15,2013-07-26 04:24:00,
2013-07-26 00:25:00,63.3,57.0,29.97,NNE,13,0.0,13.0,80,0.00,,,0.00,0,Wunderground v.1.15,2013-07-26 04:25:00,
2013-07-26 00:26:00,63.3,57.0,29.97,NNE,13,0.0,13.0,80,0.00,,,0.00,0,Wunderground v.1.15,2013-07-26 04:26:00,
2013-07-26 00:30:00,63.2,56.9,29.97,NNE,13,0.0,13.0,80,0.00,,,0.00,0,Wunderground v.1.15,2013-07-26 04:30:00,
2013-07-26 00:32:00,63.2,56.9,29.97,NNE,13,0.0,13.0,80,0.00,,,0.00,0,Wunderground v.1.15,2013-07-26 04:32:00,
2013-07-26 00:33:00,63.2,56.9,29.97,NNE,13,0.0,13.0,80,0.00,,,0.00,0,Wunderground v.1.15,2013-07-26 04:33:00,
2013-07-26 00:34:00,63.1,56.8,29.97,NNE,13,0.0,13.0,80,0.00,,,0.00,0,Wunderground v.1.15,2013-07-26 04:34:00,
2013-07-26 00:37:00,63.1,56.8,29.97,NNE,13,0.0,13.0,80,0.00,,,0.00,0,Wunderground v.1.15,2013-07-26 04:37:00,
2013-07-26 00:40:00,63.1,56.8,29.97,NNE,13,0.0,13.0,80,0.00,,,0.00,0,Wunderground v.1.15,2013-07-26 04:40:00,
2013-07-26 00:41:00,63.1,56.8,29.97,NNE,13,0.0,13.0,80,0.00,,,0.00,0,Wunderground v.1.15,2013-07-26 04:41:00,
2013-07-26 00:42:00,63.1,56.8,29.97,NNE,13,0.0,13.0,80,0.00,,,0.00,0,Wunderground v.1.15,2013-07-26 04:42:00,
2013-07-26 00:46:00,63.0,57.1,29.96,NNE,13,0.0,13.0,81,0.00,,,0.00,0,Wunderground v.1.15,2013-07-26 04:46:00,
2013-07-26 00:47:00,63.0,57.1,29.96,NNE,13,0.0,13.0,81,0.00,,,0.00,0,Wunderground v.1.15,2013-07-26 04:47:00,
2013-07-26 00:48:00,63.0,57.1,29.96,NNE,13,0.0,13.0,81,0.00,,,0.00,0,Wunderground v.1.15,2013-07-26 04:48:00,
2013-07-26 00:52:00,63.0,57.1,29.96,NNE,13,0.0,13.0,81,0.00,,,0.00,0,Wunderground v.1.15,2013-07-26 04:52:00,
2013-07-26 00:54:00,62.9,57.0,29.96,NNE,13,0.0,13.0,81,0.00,,,0.00,0,Wunderground v.1.15,2013-07-26 04:54:00,
2013-07-26 00:56:00,62.9,57.0,29.96,NNE,13,0.0,13.0,81,0.00,,,0.00,0,Wunderground v.1.15,2013-07-26 04:56:00,
2013-07-26 00:57:00,62.5,61.9,29.82,NNE,12,0.0,0.0,98,0.20,,,1.25,0,Wunderground v.1.15,2013-07-26 04:57:00,
2013-07-26 00:59:00,62.9,57.0,29.96,NNE,13,0.0,13.0,81,0.00,,,0.00,0,Wunderground v.1.15,2013-07-26 04:59:00,
2013-07-26 01:01:00,62.9,57.3,29.96,NNE,13,0.0,13.0,82,0.00,,,0.00,0,Wunderground v.1.15,2013-07-26 05:01:00,
2013-07-26 01:02:00,62.9,57.3,29.96,NNE,13,0.0,13.0,82,0.00,,,0.00,0,Wunderground v.1.15,2013-07-26 05:02:00,
2013-07-26 01:05:00,62.9,57.3,29.96,NNE,13,0.0,13.0,82,0.00,,,0.00,0,Wunderground v.1.15,2013-07-26 05:05:00,
2013-07-26 01:06:00,62.9,57.3,29.96,NNE,13,0.0,13.0,82,0.00,,,0.00,0,Wunderground v.1.15,2013-07-26 05:06:00,
2013-07-26 01:08:00,62.9,57.3,29.96,NNE,17,0.0,13.0,82,0.00,,,0.00,0,Wunderground v.1.15,2013-07-26 05:08:00,
2013-07-26 01:09:00,62.9,57.3,29.96,NNE,17,0.0,13.0,82,0.00,,,0.00,0,Wunderground v.1.15,2013-07-26 05:09:00,
2013-07-26 01:10:00,62.9,57.3,29.96,NNE,17,0.0,13.0,82,0.00,,,0.00,0,Wunderground v.1.15,2013-07-26 05:10:00,
2013-07-26 01:13:00,62.9,57.3,29.96,NNE,19,0.0,13.0,82,0.00,,,0.00,0,Wunderground v.1.15,2013-07-26 05:13:00,
2013-07-26 01:17:00,62.9,57.7,29.96,NNE,19,0.0,13.0,83,0.00,,,0.00,0,Wunderground v.1.15,2013-07-26 05:17:00,
2013-07-26 01:19:00,62.9,57.7,29.96,NNE,19,0.0,13.0,83,0.00,,,0.00,0,Wunderground v.1.15,2013-07-26 05:19:00,
2013-07-26 01:20:00,62.9,57.7,29.96,NNE,19,0.0,13.0,83,0.00,,,0.00,0,Wunderground v.1.15,2013-07-26 05:20:00,
2013-07-26 01:21:00,62.9,57.7,29.96,NNE,19,0.0,13.0,83,0.00,,,0.00,0,Wunderground v.1.15,2013-07-26 05:21:00,
2013-07-26 01:22:00,62.9,57.7,29.96,NNE,19,0.0,13.0,83,0.00,,,0.00,0,Wunderground v.1.15,2013-07-26 05:22:00,
2013-07-26 01:24:00,62.9,57.7,29.96,NNE,19,0.0,13.0,83,0.00,,,0.00,0,Wunderground v.1.15,2013-07-26 05:24:00,
2013-07-26 01:27:00,62.9,57.7,29.95,NNE,24,0.0,13.0,83,0.00,,,0.00,0,Wunderground v.1.15,2013-07-26 05:27:00,
2013-07-26 01:29:00,62.9,57.7,29.95,NNE,21,0.0,13.0,83,0.00,,,0.00,0,Wunderground v.1.15,2013-07-26 05:29:00,
2013-07-26 01:30:00,62.9,57.7,29.95,NNE,21,0.0,13.0,83,0.00,,,0.00,0,Wunderground v.1.15,2013-07-26 05:30:00,
2013-07-26 01:31:00,62.9,57.7,29.95,NNE,21,0.0,13.0,83,0.00,,,0.00,0,Wunderground v.1.15,2013-07-26 05:31:00,
2013-07-26 01:33:00,62.9,57.7,29.95,NNE,21,0.0,13.0,83,0.00,,,0.00,0,Wunderground v.1.15,2013-07-26 05:33:00,
2013-07-26 01:36:00,62.9,57.7,29.95,NNE,21,0.0,13.0,83,0.00,,,0.00,0,Wunderground v.1.15,2013-07-26 05:36:00,
2013-07-26 01:39:00,62.9,58.0,29.95,NNE,21,0.0,13.0,84,0.00,,,0.00,0,Wunderground v.1.15,2013-07-26 05:39:00,
2013-07-26 01:40:00,62.9,58.0,29.95,NNE,28,0.0,13.0,84,0.00,,,0.00,0,Wunderground v.1.15,2013-07-26 05:40:00,
2013-07-26 01:43:00,62.9,58.0,29.95,North,5,0.0,13.0,84,0.00,,,0.00,0,Wunderground v.1.15,2013-07-26 05:43:00,
2013-07-26 01:44:00,62.9,58.0,29.95,North,5,0.0,13.0,84,0.00,,,0.00,0,Wunderground v.1.15,2013-07-26 05:44:00,
2013-07-26 01:47:00,62.9,58.0,29.95,NNE,26,0.0,13.0,84,0.00,,,0.00,0,Wunderground v.1.15,2013-07-26 05:47:00,
2013-07-26 01:49:00,62.9,58.0,29.95,NNE,28,0.0,13.0,84,0.00,,,0.00,0,Wunderground v.1.15,2013-07-26 05:49:00,
2013-07-26 01:50:00,62.9,58.0,29.95,NNE,28,0.0,13.0,84,0.00,,,0.00,0,Wunderground v.1.15,2013-07-26 05:50:00,
2013-07-26 01:51:00,62.9,58.0,29.95,NNE,28,0.0,13.0,84,0.00,,,0.00,0,Wunderground v.1.15,2013-07-26 05:51:00,
2013-07-26 01:52:00,62.9,58.0,29.95,NNE,13,0.0,13.0,84,0.00,,,0.00,0,Wunderground v.1.15,2013-07-26 05:52:00,
2013-07-26 01:54:00,62.9,58.0,29.96,NNE,13,0.0,13.0,84,0.00,,,0.00,0,Wunderground v.1.15,2013-07-26 05:54:00,
2013-07-26 01:57:00,62.9,58.3,29.96,NNE,13,0.0,13.0,85,0.00,,,0.00,0,Wunderground v.1.15,2013-07-26 05:57:00,
2013-07-26 01:58:00,63.0,58.4,29.96,NNE,13,0.0,13.0,85,0.00,,,0.00,0,Wunderground v.1.15,2013-07-26 05:58:00,
2013-07-26 02:00:00,63.0,58.4,29.96,NNE,13,0.0,13.0,85,0.00,,,0.00,0,Wunderground v.1.15,2013-07-26 06:00:00,
2013-07-26 02:03:00,63.0,58.4,29.95,NNE,13,0.0,13.0,85,0.00,,,0.00,0,Wunderground v.1.15,2013-07-26 06:03:00,
2013-07-26 02:04:00,63.0,58.4,29.95,NNW,346,0.0,13.0,85,0.00,,,0.00,0,Wunderground v.1.15,2013-07-26 06:04:00,
2013-07-26 02:07:00,63.1,58.5,29.95,NNW,340,0.0,13.0,85,0.00,,,0.00,0,Wunderground v.1.15,2013-07-26 06:07:00,
2013-07-26 02:10:00,63.1,58.5,29.95,NNW,338,0.0,13.0,85,0.00,,,0.00,0,Wunderground v.1.15,2013-07-26 06:10:00,
2013-07-26 02:12:00,63.1,58.5,29.95,NNW,339,0.0,13.0,85,0.00,,,0.00,0,Wunderground v.1.15,2013-07-26 06:12:00,
2013-07-26 02:14:00,63.1,58.5,29.96,NNW,338,0.0,13.0,85,0.00,,,0.00,0,Wunderground v.1.15,2013-07-26 06:14:00,
2013-07-26 02:16:00,63.2,58.6,29.96,NNW,338,0.0,13.0,85,0.00,,,0.00,0,Wunderground v.1.15,2013-07-26 06:16:00,
2013-07-26 02:17:00,63.2,58.9,29.96,NNW,338,0.0,13.0,86,0.00,,,0.00,0,Wunderground v.1.15,2013-07-26 06:17:00,
2013-07-26 02:18:00,63.1,58.8,29.96,NNW,339,0.0,13.0,86,0.00,,,0.00,0,Wunderground v.1.15,2013-07-26 06:18:00,
2013-07-26 02:22:00,63.2,58.9,29.96,NNW,339,0.0,13.0,86,0.00,,,0.00,0,Wunderground v.1.15,2013-07-26 06:22:00,
2013-07-26 02:24:00,63.2,58.9,29.96,NNW,339,0.0,13.0,86,0.00,,,0.00,0,Wunderground v.1.15,2013-07-26 06:24:00,
2013-07-26 02:27:00,63.2,58.9,29.96,NNW,339,0.0,13.0,86,0.00,,,0.00,0,Wunderground v.1.15,2013-07-26 06:27:00,
2013-07-26 02:29:00,63.2,58.9,29.96,NNW,339,0.0,13.0,86,0.00,,,0.00,0,Wunderground v.1.15,2013-07-26 06:29:00,
2013-07-26 02:30:00,63.2,58.9,29.96,NNW,339,0.0,13.0,86,0.00,,,0.00,0,Wunderground v.1.15,2013-07-26 06:30:00,
2013-07-26 02:33:00,63.2,58.9,29.96,NNW,339,0.0,13.0,86,0.00,,,0.00,0,Wunderground v.1.15,2013-07-26 06:33:00,
2013-07-26 02:38:00,63.2,59.3,29.96,NNW,339,0.0,13.0,87,0.00,,,0.00,0,Wunderground v.1.15,2013-07-26 06:38:00,
2013-07-26 02:39:00,63.2,59.3,29.97,NNW,339,0.0,13.0,87,0.00,,,0.00,0,Wunderground v.1.15,2013-07-26 06:39:00,
2013-07-26 02:40:00,63.2,59.3,29.97,NNW,339,0.0,13.0,87,0.00,,,0.00,0,Wunderground v.1.15,2013-07-26 06:40:00,
2013-07-26 02:41:00,63.2,59.3,29.97,NNW,339,0.0,13.0,87,0.00,,,0.00,0,Wunderground v.1.15,2013-07-26 06:41:00,
2013-07-26 02:46:00,63.2,59.3,29.97,NNW,339,0.0,13.0,87,0.00,,,0.00,0,Wunderground v.1.15,2013-07-26 06:46:00,
2013-07-26 02:47:00,63.2,59.3,29.97,NNW,339,0.0,13.0,87,0.00,,,0.00,0,Wunderground v.1.15,2013-07-26 06:47:00,
2013-07-26 02:48:00,63.2,59.3,29.97,NNW,339,0.0,13.0,87,0.00,,,0.00,0,Wunderground v.1.15,2013-07-26 06:48:00,
2013-07-26 02:49:00,63.2,59.6,29.97,NNW,346,0.0,13.0,88,0.00,,,0.00,0,Wunderground v.1.15,2013-07-26 06:49:00,
2013-07-26 02:52:00,63.3,59.7,29.97,NNW,346,0.0,13.0,88,0.00,,,0.00,0,Wunderground v.1.15,2013-07-26 06:52:00,
2013-07-26 02:54:00,63.3,59.7,29.97,North,355,0.0,13.0,88,0.00,,,0.00,0,Wunderground v.1.15,2013-07-26 06:54:00,
2013-07-26 02:55:00,63.3,59.7,29.97,North,355,0.0,13.0,88,0.00,,,0.00,0,Wunderground v.1.15,2013-07-26 06:55:00,
2013-07-26 02:57:00,63.3,59.7,29.97,North,355,0.0,13.0,88,0.00,,,0.00,0,Wunderground v.1.15,2013-07-26 06:57:00,
2013-07-26 02:59:00,63.4,59.8,29.97,North,360,0.0,13.0,88,0.00,,,0.00,0,Wunderground v.1.15,2013-07-26 06:59:00,
2013-07-26 03:01:00,63.4,59.8,29.97,North,360,0.0,13.0,88,0.00,,,0.00,0,Wunderground v.1.15,2013-07-26 07:01:00,
2013-07-26 03:03:00,63.4,60.1,29.97,North,360,0.0,13.0,89,0.00,,,0.01,0,Wunderground v.1.15,2013-07-26 07:03:00,
2013-07-26 03:05:00,63.4,60.1,29.97,North,360,0.0,13.0,89,0.00,,,0.01,0,Wunderground v.1.15,2013-07-26 07:05:00,
2013-07-26 03:08:00,63.4,60.1,29.97,North,360,0.0,13.0,89,0.00,,,0.01,0,Wunderground v.1.15,2013-07-26 07:08:00,
2013-07-26 03:10:00,63.4,60.4,29.97,North,360,0.0,13.0,90,0.09,,,0.02,0,Wunderground v.1.15,2013-07-26 07:10:00,
2013-07-26 03:11:00,63.4,60.4,29.97,North,360,0.0,13.0,90,0.09,,,0.02,0,Wunderground v.1.15,2013-07-26 07:11:00,
2013-07-26 03:12:00,63.3,60.3,29.97,North,360,0.0,13.0,90,0.25,,,0.03,0,Wunderground v.1.15,2013-07-26 07:12:00,
2013-07-26 03:14:00,63.3,60.3,29.97,North,360,0.0,13.0,90,0.24,,,0.03,0,Wunderground v.1.15,2013-07-26 07:14:00,
2013-07-26 03:16:00,63.2,60.2,29.96,North,360,0.0,13.0,90,0.13,,,0.03,0,Wunderground v.1.15,2013-07-26 07:16:00,
2013-07-26 03:17:00,63.1,60.1,29.96,North,360,0.0,13.0,90,0.11,,,0.03,0,Wunderground v.1.15,2013-07-26 07:17:00,
2013-07-26 03:20:00,63.0,60.0,29.96,North,360,0.0,13.0,90,0.07,,,0.03,0,Wunderground v.1.15,2013-07-26 07:20:00,
2013-07-26 03:21:00,62.9,59.9,29.96,North,360,0.0,13.0,90,0.06,,,0.03,0,Wunderground v.1.15,2013-07-26 07:21:00,
2013-07-26 03:22:00,62.9,59.9,29.96,North,360,0.0,13.0,90,0.06,,,0.03,0,Wunderground v.1.15,2013-07-26 07:22:00,
2013-07-26 03:26:00,62.7,60.0,29.96,North,360,0.0,13.0,91,0.06,,,0.04,0,Wunderground v.1.15,2013-07-26 07:26:00,
2013-07-26 03:27:00,62.7,60.0,29.96,North,360,0.0,13.0,91,0.13,,,0.05,0,Wunderground v.1.15,2013-07-26 07:27:00,
2013-07-26 03:28:00,62.6,59.9,29.96,North,360,0.0,13.0,91,0.13,,,0.05,0,Wunderground v.1.15,2013-07-26 07:28:00,
2013-07-26 03:29:00,62.6,59.9,29.96,North,360,0.0,13.0,91,0.13,,,0.05,0,Wunderground v.1.15,2013-07-26 07:29:00,
2013-07-26 03:30:00,62.6,59.9,29.96,North,360,0.0,13.0,91,0.13,,,0.05,0,Wunderground v.1.15,2013-07-26 07:30:00,
2013-07-26 03:33:00,62.4,59.7,29.95,North,360,0.0,13.0,91,0.09,,,0.05,0,Wunderground v.1.15,2013-07-26 07:33:00,
2013-07-26 03:34:00,62.4,59.7,29.95,North,360,0.0,13.0,91,0.08,,,0.05,0,Wunderground v.1.15,2013-07-26 07:34:00,
2013-07-26 03:38:00,62.2,59.8,29.95,North,360,0.0,13.0,92,0.05,,,0.05,0,Wunderground v.1.15,2013-07-26 07:38:00,
2013-07-26 03:39:00,62.2,59.8,29.96,North,360,0.0,13.0,92,0.05,,,0.05,0,Wunderground v.1.15,2013-07-26 07:39:00,
2013-07-26 03:43:00,62.1,59.7,29.96,North,360,0.0,13.0,92,0.04,,,0.05,0,Wunderground v.1.15,2013-07-26 07:43:00,
2013-07-26 03:45:00,62.1,59.7,29.96,North,360,0.0,13.0,92,0.00,,,0.05,0,Wunderground v.1.15,2013-07-26 07:45:00,
2013-07-26 03:47:00,62.0,59.6,29.96,North,360,0.0,13.0,92,0.00,,,0.05,0,Wunderground v.1.15,2013-07-26 07:47:00,
2013-07-26 03:48:00,62.0,59.6,29.96,North,360,0.0,13.0,92,0.00,,,0.05,0,Wunderground v.1.15,2013-07-26 07:48:00,
2013-07-26 03:49:00,62.0,60.0,29.96,North,360,0.0,13.0,93,0.00,,,0.05,0,Wunderground v.1.15,2013-07-26 07:49:00,
2013-07-26 03:52:00,61.9,59.9,29.95,North,360,0.0,13.0,93,0.00,,,0.05,0,Wunderground v.1.15,2013-07-26 07:52:00,
2013-07-26 03:53:00,61.8,59.8,29.95,North,360,0.0,13.0,93,0.00,,,0.05,0,Wunderground v.1.15,2013-07-26 07:53:00,
2013-07-26 03:54:00,61.8,59.8,29.95,North,360,0.0,13.0,93,0.00,,,0.05,0,Wunderground v.1.15,2013-07-26 07:54:00,
2013-07-26 03:55:00,61.8,59.8,29.95,North,360,0.0,13.0,93,0.00,,,0.05,0,Wunderground v.1.15,2013-07-26 07:55:00,
2013-07-26 04:00:00,61.7,59.7,29.95,North,360,0.0,13.0,93,0.00,,,0.05,0,Wunderground v.1.15,2013-07-26 08:00:00,
2013-07-26 04:02:00,61.6,59.6,29.95,North,360,0.0,13.0,93,0.00,,,0.05,0,Wunderground v.1.15,2013-07-26 08:02:00,
2013-07-26 04:03:00,61.6,59.6,29.95,North,360,0.0,13.0,93,0.00,,,0.05,0,Wunderground v.1.15,2013-07-26 08:03:00,
2013-07-26 04:05:00,61.5,59.5,29.95,North,360,0.0,13.0,93,0.00,,,0.05,0,Wunderground v.1.15,2013-07-26 08:05:00,
2013-07-26 04:06:00,61.5,59.5,29.95,North,360,0.0,13.0,93,0.00,,,0.05,0,Wunderground v.1.15,2013-07-26 08:06:00,
2013-07-26 04:09:00,61.4,59.7,29.95,North,360,0.0,13.0,94,0.00,,,0.05,0,Wunderground v.1.15,2013-07-26 08:09:00,
2013-07-26 04:10:00,61.4,59.7,29.95,North,360,0.0,13.0,94,0.00,,,0.05,0,Wunderground v.1.15,2013-07-26 08:10:00,
2013-07-26 04:13:00,61.4,59.7,29.95,North,360,0.0,13.0,94,0.00,,,0.05,0,Wunderground v.1.15,2013-07-26 08:13:00,
2013-07-26 04:15:00,61.4,59.7,29.95,North,360,0.0,13.0,94,0.00,,,0.05,0,Wunderground v.1.15,2013-07-26 08:15:00,
2013-07-26 04:18:00,61.3,59.6,29.95,North,360,0.0,13.0,94,0.00,,,0.05,0,Wunderground v.1.15,2013-07-26 08:18:00,
2013-07-26 04:19:00,61.3,59.6,29.95,North,360,0.0,13.0,94,0.00,,,0.05,0,Wunderground v.1.15,2013-07-26 08:19:00,
2013-07-26 04:24:00,61.2,59.5,29.95,North,360,0.0,13.0,94,0.00,,,0.05,0,Wunderground v.1.15,2013-07-26 08:24:00,
2013-07-26 04:25:00,61.3,59.6,29.94,North,360,0.0,13.0,94,0.00,,,0.05,0,Wunderground v.1.15,2013-07-26 08:25:00,
2013-07-26 04:26:00,61.2,59.5,29.94,North,360,0.0,13.0,94,0.00,,,0.05,0,Wunderground v.1.15,2013-07-26 08:26:00,
2013-07-26 04:28:00,61.2,59.5,29.94,North,360,0.0,13.0,94,0.00,,,0.05,0,Wunderground v.1.15,2013-07-26 08:28:00,
2013-07-26 04:30:00,61.1,59.4,29.94,North,360,0.0,13.0,94,0.00,,,0.05,0,Wunderground v.1.15,2013-07-26 08:30:00,
2013-07-26 04:31:00,61.1,59.4,29.94,North,360,0.0,13.0,94,0.00,,,0.05,0,Wunderground v.1.15,2013-07-26 08:31:00,
2013-07-26 04:33:00,61.1,59.4,29.94,North,360,0.0,13.0,94,0.00,,,0.05,0,Wunderground v.1.15,2013-07-26 08:33:00,
2013-07-26 04:34:00,61.1,59.4,29.94,North,360,0.0,13.0,94,0.00,,,0.05,0,Wunderground v.1.15,2013-07-26 08:34:00,
2013-07-26 04:37:00,61.0,59.3,29.94,North,360,0.0,13.0,94,0.00,,,0.05,0,Wunderground v.1.15,2013-07-26 08:37:00,
2013-07-26 04:38:00,61.0,59.3,29.94,North,360,0.0,13.0,94,0.00,,,0.05,0,Wunderground v.1.15,2013-07-26 08:38:00,
2013-07-26 04:39:00,60.9,59.2,29.94,North,360,0.0,13.0,94,0.00,,,0.05,0,Wunderground v.1.15,2013-07-26 08:39:00,
2013-07-26 04:43:00,60.8,59.1,29.94,North,360,0.0,13.0,94,0.00,,,0.05,0,Wunderground v.1.15,2013-07-26 08:43:00,
2013-07-26 04:45:00,60.8,59.4,29.94,North,360,0.0,13.0,95,0.00,,,0.05,0,Wunderground v.1.15,2013-07-26 08:45:00,
2013-07-26 04:47:00,60.7,59.0,29.94,North,360,0.0,13.0,94,0.00,,,0.05,0,Wunderground v.1.15,2013-07-26 08:47:00,
2013-07-26 04:49:00,60.7,59.0,29.94,North,360,0.0,13.0,94,0.00,,,0.05,0,Wunderground v.1.15,2013-07-26 08:49:00,
2013-07-26 04:50:00,60.7,59.0,29.94,North,360,0.0,13.0,94,0.00,,,0.05,0,Wunderground v.1.15,2013-07-26 08:50:00,
2013-07-26 04:52:00,60.7,59.0,29.94,North,360,0.0,13.0,94,0.00,,,0.05,0,Wunderground v.1.15,2013-07-26 08:52:00,
2013-07-26 04:53:00,60.7,59.3,29.94,North,360,0.0,13.0,95,0.00,,,0.05,0,Wunderground v.1.15,2013-07-26 08:53:00,
2013-07-26 04:56:00,60.6,59.2,29.94,North,360,0.0,13.0,95,0.00,,,0.05,0,Wunderground v.1.15,2013-07-26 08:56:00,
2013-07-26 04:58:00,60.6,59.2,29.94,North,360,0.0,13.0,95,0.00,,,0.05,0,Wunderground v.1.15,2013-07-26 08:58:00,
2013-07-26 05:00:00,60.6,59.2,29.94,North,360,0.0,13.0,95,0.00,,,0.05,0,Wunderground v.1.15,2013-07-26 09:00:00,
2013-07-26 05:02:00,60.6,59.2,29.94,North,360,0.0,13.0,95,0.00,,,0.05,0,Wunderground v.1.15,2013-07-26 09:02:00,
2013-07-26 05:03:00,60.6,59.2,29.94,North,360,0.0,13.0,95,0.00,,,0.05,0,Wunderground v.1.15,2013-07-26 09:03:00,
2013-07-26 05:04:00,60.6,59.2,29.94,North,360,0.0,13.0,95,0.00,,,0.05,0,Wunderground v.1.15,2013-07-26 09:04:00,
2013-07-26 05:06:00,60.6,59.2,29.94,North,360,0.0,13.0,95,0.00,,,0.05,0,Wunderground v.1.15,2013-07-26 09:06:00,
2013-07-26 05:10:00,60.6,59.2,29.93,North,360,0.0,13.0,95,0.00,,,0.05,0,Wunderground v.1.15,2013-07-26 09:10:00,
2013-07-26 05:12:00,60.6,59.2,29.93,North,360,0.0,13.0,95,0.00,,,0.05,0,Wunderground v.1.15,2013-07-26 09:12:00,
2013-07-26 05:13:00,60.6,59.2,29.93,North,360,0.0,13.0,95,0.00,,,0.05,0,Wunderground v.1.15,2013-07-26 09:13:00,
2013-07-26 05:14:00,60.6,59.2,29.92,North,360,0.0,13.0,95,0.00,,,0.05,0,Wunderground v.1.15,2013-07-26 09:14:00,
2013-07-26 05:16:00,60.6,59.2,29.92,North,360,0.0,13.0,95,0.00,,,0.05,0,Wunderground v.1.15,2013-07-26 09:16:00,
2013-07-26 05:17:00,60.7,59.3,29.92,North,360,0.0,13.0,95,0.00,,,0.05,0,Wunderground v.1.15,2013-07-26 09:17:00,
2013-07-26 05:18:00,60.7,59.6,29.92,North,360,0.0,13.0,96,0.00,,,0.05,0,Wunderground v.1.15,2013-07-26 09:18:00,
2013-07-26 05:19:00,60.7,59.3,29.92,NNW,340,0.0,13.0,95,0.00,,,0.05,0,Wunderground v.1.15,2013-07-26 09:19:00,
2013-07-26 05:21:00,60.7,59.6,29.92,NNW,340,0.0,13.0,96,0.00,,,0.05,0,Wunderground v.1.15,2013-07-26 09:21:00,
2013-07-26 05:24:00,60.8,59.7,29.92,NNW,340,0.0,13.0,96,0.00,,,0.05,0,Wunderground v.1.15,2013-07-26 09:24:00,
2013-07-26 05:26:00,60.8,59.7,29.92,NNW,340,0.0,13.0,96,0.00,,,0.05,0,Wunderground v.1.15,2013-07-26 09:26:00,
2013-07-26 05:30:00,60.8,59.7,29.92,NNW,340,0.0,13.0,96,0.00,,,0.05,0,Wunderground v.1.15,2013-07-26 09:30:00,
2013-07-26 05:31:00,60.8,59.7,29.92,NNW,340,0.0,13.0,96,0.00,,,0.05,0,Wunderground v.1.15,2013-07-26 09:31:00,
2013-07-26 05:34:00,60.8,59.7,29.93,NNW,340,0.0,13.0,96,0.00,,,0.05,0,Wunderground v.1.15,2013-07-26 09:34:00,
2013-07-26 05:37:00,60.9,59.8,29.92,ESE,109,0.0,13.0,96,0.00,,,0.05,0,Wunderground v.1.15,2013-07-26 09:37:00,
2013-07-26 05:38:00,60.9,59.8,29.92,ESE,109,0.0,13.0,96,0.00,,,0.05,0,Wunderground v.1.15,2013-07-26 09:38:00,
2013-07-26 05:40:00,60.9,59.8,29.93,ESE,109,0.0,13.0,96,0.00,,,0.05,0,Wunderground v.1.15,2013-07-26 09:40:00,
2013-07-26 05:43:00,60.9,59.8,29.93,ESE,108,0.0,13.0,96,0.00,,,0.05,0,Wunderground v.1.15,2013-07-26 09:43:00,
2013-07-26 05:44:00,60.9,59.8,29.93,ESE,108,0.0,13.0,96,0.00,,,0.05,0,Wunderground v.1.15,2013-07-26 09:44:00,
2013-07-26 05:46:00,61.0,59.9,29.93,East,97,0.0,13.0,96,0.00,,,0.05,0,Wunderground v.1.15,2013-07-26 09:46:00,
2013-07-26 05:47:00,61.0,59.9,29.93,East,97,0.0,13.0,96,0.00,,,0.05,0,Wunderground v.1.15,2013-07-26 09:47:00,
2013-07-26 05:50:00,61.0,59.9,29.93,East,97,0.0,13.0,96,0.00,,,0.05,0,Wunderground v.1.15,2013-07-26 09:50:00,
2013-07-26 05:52:00,61.0,59.9,29.93,East,97,0.0,13.0,96,0.00,,,0.05,0,Wunderground v.1.15,2013-07-26 09:52:00,
2013-07-26 05:53:00,61.0,59.9,29.92,East,97,0.0,13.0,96,0.00,,,0.05,0,Wunderground v.1.15,2013-07-26 09:53:00,
2013-07-26 05:55:00,61.0,59.9,29.92,East,97,0.0,13.0,96,0.00,,,0.05,0,Wunderground v.1.15,2013-07-26 09:55:00,
2013-07-26 05:57:00,61.0,59.9,29.92,East,97,0.0,13.0,96,0.00,,,0.05,0,Wunderground v.1.15,2013-07-26 09:57:00,
2013-07-26 05:58:00,61.0,59.9,29.92,East,97,0.0,13.0,96,0.00,,,0.05,0,Wunderground v.1.15,2013-07-26 09:58:00,
2013-07-26 05:59:00,61.0,59.9,29.92,East,97,0.0,13.0,96,0.00,,,0.05,0,Wunderground v.1.15,2013-07-26 09:59:00,
2013-07-26 06:00:00,60.9,59.8,29.93,East,97,0.0,13.0,96,0.00,,,0.05,0,Wunderground v.1.15,2013-07-26 10:00:00,
2013-07-26 06:01:00,60.9,59.8,29.93,East,97,0.0,13.0,96,0.00,,,0.05,0,Wunderground v.1.15,2013-07-26 10:01:00,
2013-07-26 06:04:00,61.0,59.9,29.93,East,97,0.0,13.0,96,0.00,,,0.05,0,Wunderground v.1.15,2013-07-26 10:04:00,
2013-07-26 06:06:00,60.9,59.8,29.93,East,97,0.0,13.0,96,0.00,,,0.05,0,Wunderground v.1.15,2013-07-26 10:06:00,
2013-07-26 06:10:00,60.9,59.8,29.93,ENE,61,0.0,13.0,96,0.00,,,0.05,0,Wunderground v.1.15,2013-07-26 10:10:00,
2013-07-26 06:11:00,60.9,59.8,29.93,ENE,61,0.0,13.0,96,0.00,,,0.05,0,Wunderground v.1.15,2013-07-26 10:11:00,
2013-07-26 06:12:00,60.9,59.8,29.93,ENE,61,0.0,13.0,96,0.00,,,0.05,0,Wunderground v.1.15,2013-07-26 10:12:00,
2013-07-26 06:16:00,60.9,59.8,29.93,South,184,0.0,13.0,96,0.00,,,0.05,0,Wunderground v.1.15,2013-07-26 10:16:00,
2013-07-26 06:17:00,60.9,59.8,29.93,South,184,0.0,13.0,96,0.00,,,0.05,0,Wunderground v.1.15,2013-07-26 10:17:00,
2013-07-26 06:18:00,60.9,59.8,29.93,South,184,0.0,13.0,96,0.00,,,0.05,0,Wunderground v.1.15,2013-07-26 10:18:00,
2013-07-26 06:23:00,60.8,59.7,29.93,South,184,0.0,13.0,96,0.00,,,0.05,0,Wunderground v.1.15,2013-07-26 10:23:00,
2013-07-26 06:24:00,60.8,59.7,29.93,South,184,0.0,13.0,96,0.00,,,0.05,0,Wunderground v.1.15,2013-07-26 10:24:00,
2013-07-26 06:25:00,60.8,59.7,29.93,South,184,0.0,13.0,96,0.00,,,0.05,0,Wunderground v.1.15,2013-07-26 10:25:00,
2013-07-26 06:26:00,60.8,59.7,29.93,South,185,0.0,13.0,96,0.00,,,0.05,0,Wunderground v.1.15,2013-07-26 10:26:00,
2013-07-26 06:28:00,60.7,59.6,29.93,South,185,0.0,13.0,96,0.00,,,0.05,0,Wunderground v.1.15,2013-07-26 10:28:00,
2013-07-26 06:32:00,60.7,59.6,29.93,South,185,0.0,13.0,96,0.00,,,0.05,0,Wunderground v.1.15,2013-07-26 10:32:00,
2013-07-26 06:33:00,60.7,59.6,29.93,South,185,0.0,13.0,96,0.00,,,0.05,0,Wunderground v.1.15,2013-07-26 10:33:00,
2013-07-26 06:34:00,60.7,59.6,29.93,South,185,0.0,13.0,96,0.00,,,0.05,0,Wunderground v.1.15,2013-07-26 10:34:00,
2013-07-26 06:36:00,60.7,59.6,29.93,South,185,0.0,13.0,96,0.00,,,0.05,0,Wunderground v.1.15,2013-07-26 10:36:00,
2013-07-26 06:40:00,60.7,59.6,29.94,North,10,0.0,13.0,96,0.00,,,0.05,0,Wunderground v.1.15,2013-07-26 10:40:00,
2013-07-26 06:41:00,60.7,59.6,29.93,North,10,0.0,13.0,96,0.00,,,0.05,0,Wunderground v.1.15,2013-07-26 10:41:00,
2013-07-26 06:45:00,60.6,59.5,29.94,North,10,0.0,13.0,96,0.00,,,0.05,0,Wunderground v.1.15,2013-07-26 10:45:00,
2013-07-26 06:46:00,60.6,59.5,29.94,North,10,0.0,13.0,96,0.00,,,0.05,0,Wunderground v.1.15,2013-07-26 10:46:00,
2013-07-26 06:47:00,60.6,59.5,29.94,North,10,0.0,13.0,96,0.00,,,0.05,0,Wunderground v.1.15,2013-07-26 10:47:00,
2013-07-26 06:49:00,60.6,59.5,29.93,North,10,0.0,13.0,96,0.00,,,0.05,0,Wunderground v.1.15,2013-07-26 10:49:00,
2013-07-26 06:52:00,60.6,59.5,29.93,North,10,0.0,13.0,96,0.00,,,0.05,0,Wunderground v.1.15,2013-07-26 10:52:00,
2013-07-26 06:53:00,60.5,59.4,29.94,North,10,0.0,13.0,96,0.00,,,0.05,0,Wunderground v.1.15,2013-07-26 10:53:00,
2013-07-26 06:55:00,60.5,59.4,29.94,North,10,0.0,13.0,96,0.00,,,0.05,0,Wunderground v.1.15,2013-07-26 10:55:00,
2013-07-26 06:59:00,60.5,59.4,29.94,North,10,0.0,13.0,96,0.00,,,0.05,5,Wunderground v.1.15,2013-07-26 10:59:00,
2013-07-26 07:00:00,60.5,59.4,29.94,North,10,0.0,13.0,96,0.00,,,0.05,5,Wunderground v.1.15,2013-07-26 11:00:00,
2013-07-26 07:01:00,60.5,59.4,29.94,North,10,0.0,13.0,96,0.00,,,0.05,0,Wunderground v.1.15,2013-07-26 11:01:00,
2013-07-26 07:03:00,60.5,59.4,29.94,North,10,0.0,13.0,96,0.00,,,0.05,0,Wunderground v.1.15,2013-07-26 11:03:00,
2013-07-26 07:07:00,60.5,59.4,29.94,North,10,0.0,13.0,96,0.00,,,0.05,5,Wunderground v.1.15,2013-07-26 11:07:00,
2013-07-26 07:09:00,60.5,59.4,29.94,North,10,0.0,13.0,96,0.00,,,0.05,0,Wunderground v.1.15,2013-07-26 11:09:00,
2013-07-26 07:10:00,60.5,59.4,29.93,North,10,0.0,13.0,96,0.00,,,0.05,0,Wunderground v.1.15,2013-07-26 11:10:00,
2013-07-26 07:13:00,60.5,59.4,29.94,North,10,0.0,13.0,96,0.00,,,0.05,0,Wunderground v.1.15,2013-07-26 11:13:00,
2013-07-26 07:16:00,60.5,59.4,29.94,North,10,0.0,13.0,96,0.00,,,0.05,0,Wunderground v.1.15,2013-07-26 11:16:00,
2013-07-26 07:19:00,60.5,59.4,29.94,North,10,0.0,13.0,96,0.00,,,0.05,0,Wunderground v.1.15,2013-07-26 11:19:00,
2013-07-26 07:21:00,60.5,59.4,29.94,North,10,0.0,13.0,96,0.00,,,0.05,5,Wunderground v.1.15,2013-07-26 11:21:00,
2013-07-26 07:22:00,60.5,59.4,29.94,North,10,0.0,13.0,96,0.00,,,0.05,5,Wunderground v.1.15,2013-07-26 11:22:00,
2013-07-26 07:24:00,60.5,59.4,29.94,North,10,0.0,13.0,96,0.00,,,0.05,5,Wunderground v.1.15,2013-07-26 11:24:00,
2013-07-26 07:25:00,60.5,59.4,29.94,North,10,0.0,13.0,96,0.00,,,0.05,5,Wunderground v.1.15,2013-07-26 11:25:00,
2013-07-26 07:27:00,60.5,59.4,29.94,NNE,12,0.0,13.0,96,0.00,,,0.05,5,Wunderground v.1.15,2013-07-26 11:27:00,
2013-07-26 07:28:00,60.5,59.4,29.94,NNE,12,0.0,13.0,96,0.00,,,0.05,5,Wunderground v.1.15,2013-07-26 11:28:00,
2013-07-26 07:32:00,60.5,59.4,29.94,NNE,12,0.0,13.0,96,0.00,,,0.05,5,Wunderground v.1.15,2013-07-26 11:32:00,
2013-07-26 07:34:00,60.5,59.4,29.94,NNE,12,0.0,13.0,96,0.00,,,0.05,5,Wunderground v.1.15,2013-07-26 11:34:00,
2013-07-26 07:35:00,60.5,59.4,29.94,NNE,12,0.0,13.0,96,0.00,,,0.05,5,Wunderground v.1.15,2013-07-26 11:35:00,
2013-07-26 07:37:00,60.5,59.4,29.94,NNE,12,0.0,13.0,96,0.00,,,0.05,0,Wunderground v.1.15,2013-07-26 11:37:00,
2013-07-26 07:38:00,60.5,59.4,29.94,NNE,12,0.0,13.0,96,0.00,,,0.05,0,Wunderground v.1.15,2013-07-26 11:38:00,
2013-07-26 07:41:00,60.5,59.4,29.94,NNE,12,0.0,13.0,96,0.00,,,0.05,0,Wunderground v.1.15,2013-07-26 11:41:00,
2013-07-26 07:44:00,60.5,59.4,29.94,NNE,12,0.0,13.0,96,0.00,,,0.05,0,Wunderground v.1.15,2013-07-26 11:44:00,
2013-07-26 07:45:00,60.5,59.4,29.94,NNE,12,0.0,13.0,96,0.00,,,0.05,0,Wunderground v.1.15,2013-07-26 11:45:00,
2013-07-26 07:48:00,60.5,59.4,29.94,NNE,12,0.0,13.0,96,0.00,,,0.05,0,Wunderground v.1.15,2013-07-26 11:48:00,
2013-07-26 07:52:00,60.6,59.5,29.94,NNE,12,0.0,13.0,96,0.00,,,0.05,7,Wunderground v.1.15,2013-07-26 11:52:00,
2013-07-26 07:53:00,60.6,59.5,29.94,NNE,12,0.0,13.0,96,0.00,,,0.05,7,Wunderground v.1.15,2013-07-26 11:53:00,
2013-07-26 07:54:00,60.6,59.5,29.94,NNE,12,0.0,13.0,96,0.00,,,0.05,7,Wunderground v.1.15,2013-07-26 11:54:00,
2013-07-26 07:57:00,60.6,59.5,29.94,NNE,12,0.0,13.0,96,0.00,,,0.05,9,Wunderground v.1.15,2013-07-26 11:57:00,
2013-07-26 07:59:00,60.6,59.5,29.94,NNE,12,0.0,13.0,96,0.00,,,0.05,11,Wunderground v.1.15,2013-07-26 11:59:00,
2013-07-26 08:03:00,60.6,59.5,29.94,NNE,12,0.0,13.0,96,0.00,,,0.05,9,Wunderground v.1.15,2013-07-26 12:03:00,
2013-07-26 08:05:00,60.7,59.6,29.94,NNE,12,0.0,13.0,96,0.00,,,0.05,9,Wunderground v.1.15,2013-07-26 12:05:00,
2013-07-26 08:06:00,60.6,59.5,29.94,NNE,12,0.0,13.0,96,0.00,,,0.05,7,Wunderground v.1.15,2013-07-26 12:06:00,
2013-07-26 08:10:00,60.7,59.6,29.94,NNE,12,0.0,13.0,96,0.00,,,0.05,9,Wunderground v.1.15,2013-07-26 12:10:00,
2013-07-26 08:11:00,60.7,59.6,29.94,NNE,12,0.0,13.0,96,0.00,,,0.05,9,Wunderground v.1.15,2013-07-26 12:11:00,
2013-07-26 08:12:00,60.7,59.6,29.94,NNE,12,0.0,13.0,96,0.00,,,0.05,11,Wunderground v.1.15,2013-07-26 12:12:00,
2013-07-26 08:15:00,60.7,59.6,29.94,NNE,12,0.0,13.0,96,0.00,,,0.05,9,Wunderground v.1.15,2013-07-26 12:15:00,
2013-07-26 08:18:00,60.7,59.6,29.94,NNE,12,0.0,13.0,96,0.00,,,0.05,9,Wunderground v.1.15,2013-07-26 12:18:00,
2013-07-26 08:20:00,60.8,59.7,29.94,NNE,12,0.0,13.0,96,0.00,,,0.05,9,Wunderground v.1.15,2013-07-26 12:20:00,
2013-07-26 08:22:00,60.8,59.7,29.94,NNE,12,0.0,13.0,96,0.00,,,0.05,7,Wunderground v.1.15,2013-07-26 12:22:00,
2013-07-26 08:23:00,60.8,59.7,29.94,NNE,12,0.0,13.0,96,0.00,,,0.05,7,Wunderground v.1.15,2013-07-26 12:23:00,
2013-07-26 08:27:00,60.8,59.7,29.94,NNE,12,0.0,13.0,96,0.00,,,0.05,11,Wunderground v.1.15,2013-07-26 12:27:00,
2013-07-26 08:28:00,60.9,59.8,29.94,NNE,12,0.0,13.0,96,0.00,,,0.05,11,Wunderground v.1.15,2013-07-26 12:28:00,
2013-07-26 08:29:00,60.9,59.8,29.94,NNE,12,0.0,13.0,96,0.00,,,0.05,12,Wunderground v.1.15,2013-07-26 12:29:00,
2013-07-26 08:30:00,60.9,59.8,29.94,NNE,12,0.0,13.0,96,0.00,,,0.05,14,Wunderground v.1.15,2013-07-26 12:30:00,
2013-07-26 08:33:00,60.9,59.8,29.94,NNE,12,0.0,13.0,96,0.00,,,0.05,11,Wunderground v.1.15,2013-07-26 12:33:00,
2013-07-26 08:36:00,61.0,59.9,29.94,NNE,12,0.0,13.0,96,0.00,,,0.05,11,Wunderground v.1.15,2013-07-26 12:36:00,
2013-07-26 08:37:00,61.0,59.9,29.94,NNE,12,0.0,13.0,96,0.00,,,0.05,11,Wunderground v.1.15,2013-07-26 12:37:00,
2013-07-26 08:38:00,61.0,59.9,29.94,NNE,12,0.0,13.0,96,0.00,,,0.05,7,Wunderground v.1.15,2013-07-26 12:38:00,
2013-07-26 08:40:00,61.0,59.9,29.94,NNE,12,0.0,13.0,96,0.00,,,0.05,12,Wunderground v.1.15,2013-07-26 12:40:00,
2013-07-26 08:42:00,61.0,59.9,29.95,NNE,12,0.0,13.0,96,0.00,,,0.05,11,Wunderground v.1.15,2013-07-26 12:42:00,
2013-07-26 08:45:00,61.1,60.0,29.94,NNE,12,0.0,13.0,96,0.00,,,0.05,18,Wunderground v.1.15,2013-07-26 12:45:00,
2013-07-26 08:46:00,61.1,60.0,29.94,NNE,12,0.0,13.0,96,0.00,,,0.05,16,Wunderground v.1.15,2013-07-26 12:46:00,
2013-07-26 08:48:00,61.1,60.0,29.94,NNE,12,0.0,13.0,96,0.00,,,0.05,12,Wunderground v.1.15,2013-07-26 12:48:00,
2013-07-26 08:53:00,61.1,60.0,29.94,NNE,12,0.0,13.0,96,0.00,,,0.05,16,Wunderground v.1.15,2013-07-26 12:53:00,
2013-07-26 08:54:00,61.1,60.0,29.94,NNE,12,0.0,13.0,96,0.00,,,0.05,16,Wunderground v.1.15,2013-07-26 12:54:00,
2013-07-26 08:57:00,61.1,60.0,29.94,NNE,12,0.0,13.0,96,0.00,,,0.05,16,Wunderground v.1.15,2013-07-26 12:57:00,
2013-07-26 10:18:00,62.4,60.9,29.94,North,9,0.0,13.0,95,0.00,,,0.05,51,Wunderground v.1.15,2013-07-26 14:18:00,
2013-07-26 10:19:00,62.4,60.9,29.94,North,9,0.0,13.0,95,0.00,,,0.05,51,Wunderground v.1.15,2013-07-26 14:19:00,
2013-07-26 10:20:00,62.5,61.0,29.94,North,9,0.0,0.0,95,0.00,,,0.05,53,Wunderground v.1.15,2013-07-26 14:20:00,
2013-07-26 10:21:00,62.5,60.7,29.94,North,9,0.0,0.0,94,0.00,,,0.05,53,Wunderground v.1.15,2013-07-26 14:21:00,
2013-07-26 10:24:00,62.5,60.7,29.93,North,9,0.0,0.0,94,0.00,,,0.05,58,Wunderground v.1.15,2013-07-26 14:24:00,
2013-07-26 10:25:00,62.6,60.8,29.94,North,9,0.0,0.0,94,0.00,,,0.05,56,Wunderground v.1.15,2013-07-26 14:25:00,
2013-07-26 10:27:00,62.6,60.8,29.93,North,9,0.0,0.0,94,0.00,,,0.05,58,Wunderground v.1.15,2013-07-26 14:27:00,
2013-07-26 10:32:00,62.7,60.9,29.93,North,9,0.0,0.0,94,0.00,,,0.05,76,Wunderground v.1.15,2013-07-26 14:32:00,
2013-07-26 10:33:00,62.7,60.9,29.93,North,9,0.0,0.0,94,0.00,,,0.05,74,Wunderground v.1.15,2013-07-26 14:33:00,
2013-07-26 10:37:00,62.8,61.0,29.93,North,9,0.0,0.0,94,0.00,,,0.05,69,Wunderground v.1.15,2013-07-26 14:37:00,
2013-07-26 10:38:00,62.9,61.1,29.93,North,9,0.0,0.0,94,0.00,,,0.05,74,Wunderground v.1.15,2013-07-26 14:38:00,
2013-07-26 10:41:00,62.9,61.1,29.93,North,9,0.0,0.0,94,0.00,,,0.05,72,Wunderground v.1.15,2013-07-26 14:41:00,
2013-07-26 10:42:00,62.9,61.1,29.93,North,9,0.0,0.0,94,0.00,,,0.05,72,Wunderground v.1.15,2013-07-26 14:42:00,
2013-07-26 10:43:00,63.0,61.2,29.93,North,9,0.0,0.0,94,0.00,,,0.05,72,Wunderground v.1.15,2013-07-26 14:43:00,
2013-07-26 10:44:00,63.0,61.2,29.93,North,9,0.0,0.0,94,0.00,,,0.05,72,Wunderground v.1.15,2013-07-26 14:44:00,
2013-07-26 10:45:00,63.0,61.2,29.93,North,9,0.0,0.0,94,0.00,,,0.05,72,Wunderground v.1.15,2013-07-26 14:45:00,
2013-07-26 10:48:00,63.1,61.3,29.93,North,9,0.0,0.0,94,0.00,,,0.05,79,Wunderground v.1.15,2013-07-26 14:48:00,
2013-07-26 10:51:00,63.3,61.5,29.93,North,9,0.0,0.0,94,0.00,,,0.05,70,Wunderground v.1.15,2013-07-26 14:51:00,
2013-07-26 10:53:00,63.3,61.5,29.93,North,9,0.0,0.0,94,0.00,,,0.05,70,Wunderground v.1.15,2013-07-26 14:53:00,
2013-07-26 10:54:00,63.4,61.6,29.93,North,9,0.0,0.0,94,0.00,,,0.05,77,Wunderground v.1.15,2013-07-26 14:54:00,
2013-07-26 10:55:00,63.4,61.6,29.93,North,9,0.0,0.0,94,0.00,,,0.05,83,Wunderground v.1.15,2013-07-26 14:55:00,
2013-07-26 10:58:00,63.5,61.7,29.93,North,9,0.0,0.0,94,0.00,,,0.05,86,Wunderground v.1.15,2013-07-26 14:58:00,
2013-07-26 10:59:00,63.5,61.7,29.93,North,9,0.0,0.0,94,0.00,,,0.05,86,Wunderground v.1.15,2013-07-26 14:59:00,
2013-07-26 11:00:00,63.6,61.5,29.93,North,9,0.0,0.0,93,0.00,,,0.05,91,Wunderground v.1.15,2013-07-26 15:00:00,
2013-07-26 11:01:00,63.6,61.5,29.93,North,9,0.0,0.0,93,0.00,,,0.05,90,Wunderground v.1.15,2013-07-26 15:01:00,
2013-07-26 11:05:00,63.8,61.7,29.93,North,9,0.0,0.0,93,0.00,,,0.05,74,Wunderground v.1.15,2013-07-26 15:05:00,
2013-07-26 11:06:00,63.8,61.7,29.93,North,9,0.0,0.0,93,0.00,,,0.05,69,Wunderground v.1.15,2013-07-26 15:06:00,
2013-07-26 11:09:00,63.9,61.8,29.93,North,9,0.0,0.0,93,0.00,,,0.05,72,Wunderground v.1.15,2013-07-26 15:09:00,
2013-07-26 11:10:00,63.9,61.8,29.93,North,9,0.0,0.0,93,0.00,,,0.05,63,Wunderground v.1.15,2013-07-26 15:10:00,
2013-07-26 11:11:00,64.0,61.9,29.93,North,9,0.0,0.0,93,0.00,,,0.05,60,Wunderground v.1.15,2013-07-26 15:11:00,
2013-07-26 11:14:00,64.0,61.9,29.93,North,9,0.0,0.0,93,0.00,,,0.05,56,Wunderground v.1.15,2013-07-26 15:14:00,
2013-07-26 11:17:00,64.1,62.0,29.93,North,9,0.0,0.0,93,0.00,,,0.05,51,Wunderground v.1.15,2013-07-26 15:17:00,
2013-07-26 11:18:00,64.1,62.0,29.93,North,9,0.0,0.0,93,0.00,,,0.05,53,Wunderground v.1.15,2013-07-26 15:18:00,
2013-07-26 11:23:00,64.2,62.1,29.93,North,9,0.0,0.0,93,0.00,,,0.05,49,Wunderground v.1.15,2013-07-26 15:23:00,
2013-07-26 11:24:00,64.2,62.1,29.93,North,9,0.0,0.0,93,0.00,,,0.05,56,Wunderground v.1.15,2013-07-26 15:24:00,
2013-07-26 11:25:00,64.2,62.1,29.93,North,9,0.0,0.0,93,0.00,,,0.05,56,Wunderground v.1.15,2013-07-26 15:25:00,
2013-07-26 11:26:00,64.2,62.1,29.93,North,9,0.0,0.0,93,0.00,,,0.05,58,Wunderground v.1.15,2013-07-26 15:26:00,
2013-07-26 11:29:00,64.2,62.1,29.93,North,9,0.0,0.0,93,0.00,,,0.05,67,Wunderground v.1.15,2013-07-26 15:29:00,
2013-07-26 11:30:00,64.3,62.2,29.93,North,9,0.0,0.0,93,0.00,,,0.05,70,Wunderground v.1.15,2013-07-26 15:30:00,
2013-07-26 11:31:00,64.2,62.1,29.93,North,9,0.0,0.0,93,0.00,,,0.05,70,Wunderground v.1.15,2013-07-26 15:31:00,
2013-07-26 11:33:00,64.3,62.2,29.93,North,9,0.0,0.0,93,0.00,,,0.05,60,Wunderground v.1.15,2013-07-26 15:33:00,
2013-07-26 11:35:00,64.3,62.2,29.93,North,9,0.0,0.0,93,0.00,,,0.05,56,Wunderground v.1.15,2013-07-26 15:35:00,
2013-07-26 11:39:00,64.4,62.3,29.93,North,9,0.0,0.0,93,0.00,,,0.05,60,Wunderground v.1.15,2013-07-26 15:39:00,
2013-07-26 11:40:00,64.4,62.3,29.93,North,9,0.0,0.0,93,0.00,,,0.05,79,Wunderground v.1.15,2013-07-26 15:40:00,
2013-07-26 11:43:00,64.4,62.3,29.93,North,9,0.0,0.0,93,0.00,,,0.05,79,Wunderground v.1.15,2013-07-26 15:43:00,
2013-07-26 11:44:00,64.5,62.4,29.93,North,9,0.0,0.0,93,0.00,,,0.05,63,Wunderground v.1.15,2013-07-26 15:44:00,
2013-07-26 11:46:00,64.5,62.4,29.93,North,9,0.0,0.0,93,0.00,,,0.05,86,Wunderground v.1.15,2013-07-26 15:46:00,
2013-07-26 11:48:00,64.5,62.4,29.93,North,9,0.0,0.0,93,0.00,,,0.05,84,Wunderground v.1.15,2013-07-26 15:48:00,
2013-07-26 11:49:00,64.6,62.5,29.93,North,9,0.0,0.0,93,0.00,,,0.05,86,Wunderground v.1.15,2013-07-26 15:49:00,
2013-07-26 11:50:00,64.6,62.5,29.93,North,9,0.0,0.0,93,0.00,,,0.05,81,Wunderground v.1.15,2013-07-26 15:50:00,
2013-07-26 11:54:00,64.7,62.6,29.93,North,9,0.0,0.0,93,0.00,,,0.05,60,Wunderground v.1.15,2013-07-26 15:54:00,
2013-07-26 11:56:00,64.7,62.6,29.93,North,9,0.0,0.0,93,0.00,,,0.05,63,Wunderground v.1.15,2013-07-26 15:56:00,
2013-07-26 11:57:00,64.8,62.7,29.93,North,9,0.0,0.0,93,0.00,,,0.05,72,Wunderground v.1.15,2013-07-26 15:57:00,
2013-07-26 11:59:00,64.8,62.4,29.93,North,9,0.0,0.0,92,0.00,,,0.05,111,Wunderground v.1.15,2013-07-26 15:59:00,
2013-07-26 12:00:00,64.9,62.5,29.93,North,9,0.0,0.0,92,0.00,,,0.05,121,Wunderground v.1.15,2013-07-26 16:00:00,
2013-07-26 12:03:00,64.9,62.8,29.93,North,9,0.0,0.0,93,0.00,,,0.05,120,Wunderground v.1.15,2013-07-26 16:03:00,
2013-07-26 12:04:00,65.0,62.9,29.93,North,9,0.0,0.0,93,0.00,,,0.05,120,Wunderground v.1.15,2013-07-26 16:04:00,
2013-07-26 12:05:00,65.1,63.0,29.92,North,9,0.0,0.0,93,0.00,,,0.05,104,Wunderground v.1.15,2013-07-26 16:05:00,
2013-07-26 12:08:00,65.2,63.1,29.92,North,9,0.0,0.0,93,0.00,,,0.05,79,Wunderground v.1.15,2013-07-26 16:08:00,
2013-07-26 12:11:00,65.3,63.2,29.92,North,9,0.0,0.0,93,0.00,,,0.05,63,Wunderground v.1.15,2013-07-26 16:11:00,
2013-07-26 12:12:00,65.4,63.0,29.92,North,9,0.0,0.0,92,0.00,,,0.05,69,Wunderground v.1.15,2013-07-26 16:12:00,
2013-07-26 12:13:00,65.4,63.0,29.92,North,9,0.0,0.0,92,0.00,,,0.05,67,Wunderground v.1.15,2013-07-26 16:13:00,
2013-07-26 12:15:00,65.4,63.0,29.92,North,9,0.0,0.0,92,0.00,,,0.05,56,Wunderground v.1.15,2013-07-26 16:15:00,
2013-07-26 12:16:00,65.4,63.0,29.92,North,9,0.0,0.0,92,0.00,,,0.05,53,Wunderground v.1.15,2013-07-26 16:16:00,
2013-07-26 12:17:00,65.5,63.1,29.92,North,9,0.0,0.0,92,0.00,,,0.05,53,Wunderground v.1.15,2013-07-26 16:17:00,
2013-07-26 12:18:00,65.5,63.1,29.92,North,9,0.0,0.0,92,0.00,,,0.05,56,Wunderground v.1.15,2013-07-26 16:18:00,
2013-07-26 12:19:00,65.5,63.1,29.92,North,9,0.0,0.0,92,0.00,,,0.05,58,Wunderground v.1.15,2013-07-26 16:19:00,
2013-07-26 12:20:00,65.5,63.1,29.92,North,9,0.0,0.0,92,0.00,,,0.05,56,Wunderground v.1.15,2013-07-26 16:20:00,
2013-07-26 12:25:00,65.6,63.2,29.92,North,9,0.0,0.0,92,0.00,,,0.05,44,Wunderground v.1.15,2013-07-26 16:25:00,
2013-07-26 12:26:00,65.6,63.2,29.92,North,9,0.0,0.0,92,0.00,,,0.05,40,Wunderground v.1.15,2013-07-26 16:26:00,
2013-07-26 12:27:00,65.6,63.2,29.92,North,9,0.0,0.0,92,0.00,,,0.05,40,Wunderground v.1.15,2013-07-26 16:27:00,
2013-07-26 12:31:00,65.7,63.0,29.92,North,9,0.0,0.0,91,0.00,,,0.05,39,Wunderground v.1.15,2013-07-26 16:31:00,
2013-07-26 12:32:00,65.6,62.9,29.92,North,9,0.0,0.0,91,0.00,,,0.05,32,Wunderground v.1.15,2013-07-26 16:32:00,
2013-07-26 12:35:00,65.6,62.9,29.92,North,9,0.0,0.0,91,0.00,,,0.05,25,Wunderground v.1.15,2013-07-26 16:35:00,
2013-07-26 12:37:00,65.7,63.0,29.92,North,9,0.0,0.0,91,0.00,,,0.05,25,Wunderground v.1.15,2013-07-26 16:37:00,
2013-07-26 12:38:00,65.6,62.9,29.92,North,9,0.0,0.0,91,0.00,,,0.05,26,Wunderground v.1.15,2013-07-26 16:38:00,
2013-07-26 12:39:00,65.6,62.9,29.92,North,9,0.0,0.0,91,0.00,,,0.05,25,Wunderground v.1.15,2013-07-26 16:39:00,
2013-07-26 12:42:00,65.6,62.9,29.92,North,9,0.0,0.0,91,0.00,,,0.05,19,Wunderground v.1.15,2013-07-26 16:42:00,
2013-07-26 12:43:00,65.6,62.9,29.92,North,9,0.0,0.0,91,0.00,,,0.05,18,Wunderground v.1.15,2013-07-26 16:43:00,
2013-07-26 12:45:00,65.6,62.9,29.93,North,9,0.0,0.0,91,0.00,,,0.06,16,Wunderground v.1.15,2013-07-26 16:45:00,
2013-07-26 12:49:00,65.6,62.9,29.92,North,9,0.0,0.0,91,0.00,,,0.06,14,Wunderground v.1.15,2013-07-26 16:49:00,
2013-07-26 12:50:00,65.6,63.2,29.92,North,9,0.0,0.0,92,0.00,,,0.06,14,Wunderground v.1.15,2013-07-26 16:50:00,
2013-07-26 12:51:00,65.6,62.9,29.92,North,9,0.0,0.0,91,0.00,,,0.06,16,Wunderground v.1.15,2013-07-26 16:51:00,
2013-07-26 12:52:00,65.6,62.9,29.92,North,9,0.0,0.0,91,0.00,,,0.06,16,Wunderground v.1.15,2013-07-26 16:52:00,
2013-07-26 12:54:00,65.6,63.2,29.92,North,9,0.0,0.0,92,0.07,,,0.07,16,Wunderground v.1.15,2013-07-26 16:54:00,
2013-07-26 12:56:00,65.6,63.2,29.91,North,9,0.0,0.0,92,0.07,,,0.07,18,Wunderground v.1.15,2013-07-26 16:56:00,
2013-07-26 12:57:00,65.6,63.2,29.91,North,9,0.0,0.0,92,0.07,,,0.07,18,Wunderground v.1.15,2013-07-26 16:57:00,
2013-07-26 13:00:00,65.5,63.1,29.90,North,9,0.0,0.0,92,0.07,,,0.07,21,Wunderground v.1.15,2013-07-26 17:00:00,
2013-07-26 13:02:00,65.4,63.0,29.91,North,9,0.0,0.0,92,0.06,,,0.07,25,Wunderground v.1.15,2013-07-26 17:02:00,
2013-07-26 13:03:00,65.4,63.3,29.91,North,9,0.0,0.0,93,0.06,,,0.08,26,Wunderground v.1.15,2013-07-26 17:03:00,
2013-07-26 13:06:00,65.4,63.3,29.91,North,9,0.0,0.0,93,0.06,,,0.08,33,Wunderground v.1.15,2013-07-26 17:06:00,
2013-07-26 13:08:00,65.3,63.2,29.91,North,9,0.0,0.0,93,0.12,,,0.09,39,Wunderground v.1.15,2013-07-26 17:08:00,
2013-07-26 13:10:00,65.2,63.1,29.90,North,9,0.0,0.0,93,0.12,,,0.09,42,Wunderground v.1.15,2013-07-26 17:10:00,
2013-07-26 13:12:00,65.2,63.1,29.91,North,9,0.0,0.0,93,0.12,,,0.09,46,Wunderground v.1.15,2013-07-26 17:12:00,
2013-07-26 13:15:00,65.1,63.0,29.91,North,9,0.0,0.0,93,0.10,,,0.10,51,Wunderground v.1.15,2013-07-26 17:15:00,
2013-07-26 13:17:00,65.1,63.0,29.91,North,9,0.0,0.0,93,0.24,,,0.11,54,Wunderground v.1.15,2013-07-26 17:17:00,
2013-07-26 13:18:00,65.1,63.3,29.91,North,9,0.0,0.0,94,0.24,,,0.11,56,Wunderground v.1.15,2013-07-26 17:18:00,
2013-07-26 13:19:00,65.1,63.3,29.91,North,9,0.0,0.0,94,0.20,,,0.11,56,Wunderground v.1.15,2013-07-26 17:19:00,
2013-07-26 13:21:00,65.0,63.2,29.91,North,9,0.0,0.0,94,0.12,,,0.11,58,Wunderground v.1.15,2013-07-26 17:21:00,
2013-07-26 13:25:00,65.0,63.2,29.90,North,9,0.0,0.0,94,0.07,,,0.11,56,Wunderground v.1.15,2013-07-26 17:25:00,
2013-07-26 13:26:00,65.0,63.2,29.90,North,9,0.0,0.0,94,0.06,,,0.11,58,Wunderground v.1.15,2013-07-26 17:26:00,
2013-07-26 13:27:00,65.0,63.2,29.90,North,9,0.0,0.0,94,0.06,,,0.12,63,Wunderground v.1.15,2013-07-26 17:27:00,
2013-07-26 13:28:00,65.0,63.2,29.90,North,9,0.0,0.0,94,0.06,,,0.12,70,Wunderground v.1.15,2013-07-26 17:28:00,
2013-07-26 13:31:00,64.9,63.4,29.90,North,9,0.0,0.0,95,0.19,,,0.13,98,Wunderground v.1.15,2013-07-26 17:31:00,
2013-07-26 13:32:00,64.9,63.4,29.90,North,9,0.0,0.0,95,0.16,,,0.13,84,Wunderground v.1.15,2013-07-26 17:32:00,
2013-07-26 13:34:00,65.0,63.5,29.90,North,9,0.0,0.0,95,0.10,,,0.13,70,Wunderground v.1.15,2013-07-26 17:34:00,
2013-07-26 13:35:00,64.9,63.4,29.90,North,9,0.0,0.0,95,0.09,,,0.13,56,Wunderground v.1.15,2013-07-26 17:35:00,
2013-07-26 13:36:00,65.0,63.5,29.90,North,9,0.0,0.0,95,0.07,,,0.13,42,Wunderground v.1.15,2013-07-26 17:36:00,
2013-07-26 13:40:00,64.9,63.4,29.90,North,9,0.0,0.0,95,0.05,,,0.13,53,Wunderground v.1.15,2013-07-26 17:40:00,
2013-07-26 13:41:00,64.9,63.4,29.90,North,9,0.0,0.0,95,0.05,,,0.13,53,Wunderground v.1.15,2013-07-26 17:41:00,
2013-07-26 13:43:00,64.9,63.4,29.90,North,9,0.0,0.0,95,0.04,,,0.13,46,Wunderground v.1.15,2013-07-26 17:43:00,
2013-07-26 13:45:00,64.9,63.4,29.90,North,9,0.0,0.0,95,0.00,,,0.13,47,Wunderground v.1.15,2013-07-26 17:45:00,
2013-07-26 13:46:00,64.8,63.3,29.90,North,9,0.0,0.0,95,0.00,,,0.13,42,Wunderground v.1.15,2013-07-26 17:46:00,
2013-07-26 13:47:00,64.8,63.3,29.90,North,9,0.0,0.0,95,0.00,,,0.13,35,Wunderground v.1.15,2013-07-26 17:47:00,
2013-07-26 13:49:00,64.7,63.2,29.91,NE,42,0.0,0.0,95,0.00,,,0.13,30,Wunderground v.1.15,2013-07-26 17:49:00,
2013-07-26 13:51:00,64.7,63.2,29.91,NW,309,0.0,0.0,95,0.00,,,0.13,19,Wunderground v.1.15,2013-07-26 17:51:00,
2013-07-26 13:52:00,64.7,63.2,29.91,NW,309,0.0,0.0,95,0.00,,,0.13,14,Wunderground v.1.15,2013-07-26 17:52:00,
2013-07-26 13:57:00,64.5,63.0,29.90,NW,309,0.0,0.0,95,0.00,,,0.13,35,Wunderground v.1.15,2013-07-26 17:57:00,
2013-07-26 13:58:00,64.5,63.0,29.90,NW,309,0.0,0.0,95,0.00,,,0.13,39,Wunderground v.1.15,2013-07-26 17:58:00,
2013-07-26 13:59:00,64.5,63.0,29.90,NW,309,0.0,0.0,95,0.00,,,0.13,47,Wunderground v.1.15,2013-07-26 17:59:00,
2013-07-26 14:04:00,64.4,63.2,29.90,NW,309,0.0,0.0,96,0.00,,,0.13,21,Wunderground v.1.15,2013-07-26 18:04:00,
2013-07-26 14:06:00,64.5,63.3,29.90,NW,321,0.0,0.0,96,0.00,,,0.13,16,Wunderground v.1.15,2013-07-26 18:06:00,
2013-07-26 14:08:00,64.4,63.2,29.90,NW,321,0.0,0.0,96,0.00,,,0.13,12,Wunderground v.1.15,2013-07-26 18:08:00,
2013-07-26 14:10:00,64.4,63.2,29.90,NW,321,0.0,0.0,96,0.00,,,0.13,12,Wunderground v.1.15,2013-07-26 18:10:00,
2013-07-26 14:11:00,64.5,63.3,29.90,NW,321,0.0,0.0,96,0.00,,,0.13,21,Wunderground v.1.15,2013-07-26 18:11:00,
2013-07-26 14:14:00,64.5,63.3,29.90,NW,321,0.0,0.0,96,0.00,,,0.13,19,Wunderground v.1.15,2013-07-26 18:14:00,
2013-07-26 14:17:00,64.5,63.3,29.90,NW,321,0.0,0.0,96,0.00,,,0.13,14,Wunderground v.1.15,2013-07-26 18:17:00,
2013-07-26 14:18:00,64.5,63.3,29.90,NW,321,0.0,0.0,96,0.00,,,0.14,21,Wunderground v.1.15,2013-07-26 18:18:00,
2013-07-26 14:21:00,64.4,63.2,29.90,NW,323,0.0,0.0,96,0.00,,,0.14,12,Wunderground v.1.15,2013-07-26 18:21:00,
2013-07-26 14:23:00,64.4,63.2,29.90,NW,323,0.0,0.0,96,0.11,,,0.15,7,Wunderground v.1.15,2013-07-26 18:23:00,
2013-07-26 14:24:00,64.4,63.2,29.90,NW,323,0.0,0.0,96,0.11,,,0.15,18,Wunderground v.1.15,2013-07-26 18:24:00,
2013-07-26 14:26:00,64.4,63.2,29.90,NW,323,0.0,0.0,96,0.11,,,0.15,18,Wunderground v.1.15,2013-07-26 18:26:00,
2013-07-26 14:27:00,64.4,63.2,29.90,NW,323,0.0,0.0,96,0.11,,,0.15,21,Wunderground v.1.15,2013-07-26 18:27:00,
2013-07-26 14:32:00,64.3,63.1,29.89,NW,323,0.0,0.0,96,0.06,,,0.15,14,Wunderground v.1.15,2013-07-26 18:32:00,
2013-07-26 14:33:00,64.3,63.1,29.89,NW,323,0.0,0.0,96,0.06,,,0.15,12,Wunderground v.1.15,2013-07-26 18:33:00,
2013-07-26 14:34:00,64.3,63.1,29.89,NW,323,0.0,0.0,96,0.05,,,0.15,14,Wunderground v.1.15,2013-07-26 18:34:00,
2013-07-26 14:39:00,64.3,63.1,29.89,NW,323,0.0,0.0,96,0.04,,,0.15,21,Wunderground v.1.15,2013-07-26 18:39:00,
2013-07-26 14:40:00,64.3,63.1,29.89,NW,323,0.0,0.0,96,0.00,,,0.15,23,Wunderground v.1.15,2013-07-26 18:40:00,
2013-07-26 14:41:00,64.3,63.1,29.89,NW,323,0.0,0.0,96,0.00,,,0.15,26,Wunderground v.1.15,2013-07-26 18:41:00,
2013-07-26 14:45:00,64.3,63.1,29.89,NW,323,0.0,0.0,96,0.00,,,0.15,35,Wunderground v.1.15,2013-07-26 18:45:00,
2013-07-26 14:46:00,64.3,63.1,29.89,NW,323,0.0,0.0,96,0.00,,,0.15,37,Wunderground v.1.15,2013-07-26 18:46:00,
2013-07-26 14:49:00,64.3,63.4,29.89,NW,323,0.0,0.0,97,0.00,,,0.15,18,Wunderground v.1.15,2013-07-26 18:49:00,
2013-07-26 14:51:00,64.3,63.4,29.89,NW,323,0.0,0.0,97,0.00,,,0.15,16,Wunderground v.1.15,2013-07-26 18:51:00,
2013-07-26 14:52:00,64.3,63.4,29.89,NW,323,0.0,0.0,97,0.00,,,0.15,19,Wunderground v.1.15,2013-07-26 18:52:00,
2013-07-26 14:55:00,64.3,63.4,29.88,NW,323,0.0,0.0,97,0.00,,,0.15,21,Wunderground v.1.15,2013-07-26 18:55:00,
2013-07-26 14:56:00,64.3,63.4,29.88,NW,323,0.0,0.0,97,0.00,,,0.15,23,Wunderground v.1.15,2013-07-26 18:56:00,
2013-07-26 14:57:00,64.3,63.4,29.88,NW,323,0.0,0.0,97,0.00,,,0.15,23,Wunderground v.1.15,2013-07-26 18:57:00,
2013-07-26 14:59:00,64.3,63.4,29.88,NW,323,0.0,0.0,97,0.00,,,0.15,25,Wunderground v.1.15,2013-07-26 18:59:00,
2013-07-26 15:01:00,64.3,63.4,29.88,NW,323,0.0,0.0,97,0.00,,,0.15,32,Wunderground v.1.15,2013-07-26 19:01:00,
2013-07-26 15:02:00,64.3,63.4,29.88,NW,323,0.0,0.0,97,0.00,,,0.15,30,Wunderground v.1.15,2013-07-26 19:02:00,
2013-07-26 15:07:00,64.3,63.4,29.87,NW,323,0.0,0.0,97,0.00,,,0.15,26,Wunderground v.1.15,2013-07-26 19:07:00,
2013-07-26 15:08:00,64.3,63.4,29.87,NW,323,0.0,0.0,97,0.00,,,0.15,25,Wunderground v.1.15,2013-07-26 19:08:00,
2013-07-26 15:09:00,64.3,63.4,29.87,NW,323,0.0,0.0,97,0.00,,,0.15,25,Wunderground v.1.15,2013-07-26 19:09:00,
2013-07-26 15:13:00,64.2,63.3,29.87,NW,323,0.0,0.0,97,0.00,,,0.15,23,Wunderground v.1.15,2013-07-26 19:13:00,
2013-07-26 15:14:00,64.2,63.3,29.87,NW,323,0.0,0.0,97,0.00,,,0.15,21,Wunderground v.1.15,2013-07-26 19:14:00,
2013-07-26 15:15:00,64.2,63.3,29.87,NW,323,0.0,0.0,97,0.00,,,0.15,19,Wunderground v.1.15,2013-07-26 19:15:00,
2013-07-26 15:18:00,64.2,63.3,29.87,NW,323,0.0,0.0,97,0.00,,,0.15,14,Wunderground v.1.15,2013-07-26 19:18:00,
2013-07-26 15:19:00,64.2,63.3,29.87,NW,323,0.0,0.0,97,0.00,,,0.15,14,Wunderground v.1.15,2013-07-26 19:19:00,
2013-07-26 15:20:00,64.2,63.3,29.87,NW,323,0.0,0.0,97,0.00,,,0.15,16,Wunderground v.1.15,2013-07-26 19:20:00,
2013-07-26 15:25:00,64.2,63.3,29.87,NW,323,0.0,0.0,97,0.00,,,0.15,14,Wunderground v.1.15,2013-07-26 19:25:00,
2013-07-26 15:28:00,64.2,63.3,29.87,NW,323,0.0,0.0,97,0.00,,,0.15,12,Wunderground v.1.15,2013-07-26 19:28:00,
2013-07-26 15:29:00,64.2,63.3,29.87,NW,323,0.0,0.0,97,0.00,,,0.15,11,Wunderground v.1.15,2013-07-26 19:29:00,
2013-07-26 15:32:00,64.1,63.2,29.86,NW,323,0.0,0.0,97,0.00,,,0.15,9,Wunderground v.1.15,2013-07-26 19:32:00,
2013-07-26 15:34:00,64.1,63.2,29.85,NW,323,0.0,0.0,97,0.00,,,0.15,7,Wunderground v.1.15,2013-07-26 19:34:00,
2013-07-26 15:35:00,64.1,63.2,29.86,NW,323,0.0,0.0,97,0.00,,,0.15,9,Wunderground v.1.15,2013-07-26 19:35:00,
2013-07-26 15:38:00,64.1,63.2,29.86,NW,323,0.0,0.0,97,0.00,,,0.15,5,Wunderground v.1.15,2013-07-26 19:38:00,
2013-07-26 15:40:00,64.1,63.2,29.86,NW,323,0.0,0.0,97,0.00,,,0.15,0,Wunderground v.1.15,2013-07-26 19:40:00,
2013-07-26 15:42:00,64.1,63.2,29.85,NNW,348,0.0,0.0,97,0.00,,,0.15,0,Wunderground v.1.15,2013-07-26 19:42:00,
2013-07-26 15:45:00,64.1,63.2,29.85,NNW,348,0.0,0.0,97,0.00,,,0.15,11,Wunderground v.1.15,2013-07-26 19:45:00,
2013-07-26 15:46:00,64.0,63.1,29.84,NNW,348,0.0,0.0,97,0.00,,,0.15,11,Wunderground v.1.15,2013-07-26 19:46:00,
2013-07-26 15:47:00,64.0,63.1,29.84,North,10,0.0,0.0,97,0.00,,,0.15,11,Wunderground v.1.15,2013-07-26 19:47:00,
2013-07-26 15:50:00,64.1,63.2,29.84,North,10,0.0,0.0,97,0.00,,,0.15,12,Wunderground v.1.15,2013-07-26 19:50:00,
2013-07-26 15:55:00,64.0,63.1,29.84,North,10,0.0,0.0,97,0.00,,,0.15,0,Wunderground v.1.15,2013-07-26 19:55:00,
2013-07-26 15:56:00,64.0,63.1,29.84,North,10,0.0,0.0,97,0.00,,,0.15,0,Wunderground v.1.15,2013-07-26 19:56:00,
2013-07-26 15:59:00,64.0,63.1,29.84,NNW,342,0.0,0.0,97,0.00,,,0.15,0,Wunderground v.1.15,2013-07-26 19:59:00,
2013-07-26 16:01:00,64.0,63.1,29.84,NNE,12,0.0,0.0,97,0.00,,,0.15,0,Wunderground v.1.15,2013-07-26 20:01:00,
2013-07-26 16:02:00,64.0,63.1,29.84,North,360,0.0,0.0,97,0.00,,,0.15,0,Wunderground v.1.15,2013-07-26 20:02:00,
2013-07-26 16:04:00,64.0,63.1,29.84,North,360,0.0,0.0,97,0.00,,,0.15,0,Wunderground v.1.15,2013-07-26 20:04:00,
2013-07-26 16:05:00,64.0,63.1,29.84,North,360,0.0,0.0,97,0.00,,,0.15,0,Wunderground v.1.15,2013-07-26 20:05:00,
2013-07-26 16:06:00,64.0,63.1,29.84,NNE,26,0.0,0.0,97,0.00,,,0.15,0,Wunderground v.1.15,2013-07-26 20:06:00,
2013-07-26 16:08:00,64.0,63.1,29.83,WNW,285,0.0,0.0,97,0.00,,,0.15,0,Wunderground v.1.15,2013-07-26 20:08:00,
2013-07-26 16:11:00,64.0,63.1,29.84,NW,309,0.0,0.0,97,0.00,,,0.15,0,Wunderground v.1.15,2013-07-26 20:11:00,
2013-07-26 16:13:00,64.0,63.1,29.84,NW,309,0.0,0.0,97,0.00,,,0.15,0,Wunderground v.1.15,2013-07-26 20:13:00,
2013-07-26 16:16:00,64.0,63.1,29.84,NW,314,0.0,0.0,97,0.00,,,0.16,0,Wunderground v.1.15,2013-07-26 20:16:00,
2013-07-26 16:18:00,64.0,63.4,29.84,NW,314,0.0,0.0,98,0.19,,,0.16,0,Wunderground v.1.15,2013-07-26 20:18:00,
2013-07-26 16:19:00,64.0,63.4,29.85,NW,304,0.0,0.0,98,0.19,,,0.17,0,Wunderground v.1.15,2013-07-26 20:19:00,
2013-07-26 18:19:00,62.5,61.9,29.82,NNE,12,0.0,6.0,98,0.77,,,1.26,0,Wunderground v.1.15,2013-07-26 22:19:00,
2013-07-26 18:25:00,62.4,61.8,29.82,NNE,12,0.0,6.0,98,0.40,,,1.31,0,Wunderground v.1.15,2013-07-26 22:25:00,
2013-07-26 18:31:00,62.4,61.8,29.83,NNE,12,0.0,6.0,98,0.99,,,1.39,0,Wunderground v.1.15,2013-07-26 22:31:00,
2013-07-26 18:37:00,62.4,61.8,29.84,NNE,13,0.0,6.0,98,2.78,,,1.53,0,Wunderground v.1.15,2013-07-26 22:37:00,
2013-07-26 18:43:00,62.4,61.8,29.85,NNE,13,0.0,6.0,98,1.81,,,1.77,0,Wunderground v.1.15,2013-07-26 22:43:00,
2013-07-26 18:49:00,62.3,61.7,29.82,NNE,13,0.0,6.0,98,0.93,,,1.87,0,Wunderground v.1.15,2013-07-26 22:49:00,
2013-07-26 18:54:00,62.3,61.7,29.82,NNE,13,0.0,6.0,98,0.16,,,1.89,0,Wunderground v.1.15,2013-07-26 22:54:00,
2013-07-26 19:00:00,62.3,61.7,29.82,NNE,13,0.0,6.0,98,0.21,,,1.91,0,Wunderground v.1.15,2013-07-26 23:00:00,
2013-07-26 19:06:00,62.3,61.7,29.82,NNE,13,0.0,6.0,98,0.07,,,1.91,0,Wunderground v.1.15,2013-07-26 23:06:00,
2013-07-26 19:12:00,62.2,61.6,29.82,NNE,13,0.0,6.0,98,0.06,,,1.92,0,Wunderground v.1.15,2013-07-26 23:12:00,
2013-07-26 19:18:00,62.2,61.6,29.82,NNE,13,0.0,6.0,98,0.15,,,1.94,0,Wunderground v.1.15,2013-07-26 23:18:00,
2013-07-26 19:23:00,62.2,61.6,29.81,NNE,13,0.0,6.0,98,0.18,,,1.96,7,Wunderground v.1.15,2013-07-26 23:23:00,
2013-07-26 19:29:00,62.2,61.6,29.80,NNE,13,0.0,6.0,98,0.11,,,1.97,11,Wunderground v.1.15,2013-07-26 23:29:00,
2013-07-26 19:34:00,62.2,61.6,29.81,NNE,13,0.0,6.0,98,0.05,,,1.97,11,Wunderground v.1.15,2013-07-26 23:34:00,
2013-07-26 19:40:00,62.2,61.6,29.80,NNE,13,0.0,6.0,98,0.00,,,1.97,9,Wunderground v.1.15,2013-07-26 23:40:00,
2013-07-26 19:46:00,62.3,62.0,29.80,NNE,13,0.0,6.0,99,0.20,,,1.99,16,Wunderground v.1.15,2013-07-26 23:46:00,
2013-07-26 19:52:00,62.3,62.0,29.80,NNE,13,0.0,6.0,99,0.07,,,1.99,23,Wunderground v.1.15,2013-07-26 23:52:00,
2013-07-26 19:58:00,62.4,62.1,29.81,NNE,13,0.0,6.0,99,0.04,,,1.99,9,Wunderground v.1.15,2013-07-26 23:58:00,
2013-07-26 20:04:00,62.4,62.1,29.81,NNE,13,0.0,6.0,99,0.00,,,1.99,5,Wunderground v.1.15,2013-07-27 00:04:00,
2013-07-26 20:10:00,62.4,62.1,29.80,NNE,13,0.0,6.0,99,0.00,,,1.99,9,Wunderground v.1.15,2013-07-27 00:10:00,
2013-07-26 20:16:00,62.4,62.1,29.81,NNE,13,0.0,6.0,99,0.00,,,1.99,5,Wunderground v.1.15,2013-07-27 00:16:00,
2013-07-26 20:22:00,62.4,62.1,29.81,NNE,13,0.0,6.0,99,0.00,,,1.99,5,Wunderground v.1.15,2013-07-27 00:22:00,
2013-07-26 20:28:00,62.4,62.1,29.81,NNE,13,0.0,6.0,99,0.00,,,1.99,7,Wunderground v.1.15,2013-07-27 00:28:00,
2013-07-26 20:34:00,62.4,62.1,29.80,NNE,13,0.0,6.0,99,0.00,,,1.99,9,Wunderground v.1.15,2013-07-27 00:34:00,
2013-07-26 20:39:00,62.4,62.1,29.80,NNE,13,0.0,6.0,99,0.00,,,2.00,5,Wunderground v.1.15,2013-07-27 00:39:00,
2013-07-26 20:44:00,62.3,62.0,29.80,NNE,13,0.0,6.0,99,0.00,,,2.00,0,Wunderground v.1.15,2013-07-27 00:44:00,
2013-07-26 20:50:00,62.3,62.0,29.81,NNE,13,0.0,6.0,99,0.00,,,2.00,0,Wunderground v.1.15,2013-07-27 00:50:00,
2013-07-26 20:56:00,62.1,61.5,29.82,WSW,250,0.0,6.0,98,0.00,,,2.00,0,Wunderground v.1.15,2013-07-27 00:56:00,
2013-07-26 21:01:00,62.0,61.4,29.82,WSW,250,0.0,6.0,98,0.00,,,2.00,0,Wunderground v.1.15,2013-07-27 01:01:00,
2013-07-26 21:07:00,61.9,61.6,29.82,NE,44,0.0,6.0,99,0.00,,,2.00,0,Wunderground v.1.15,2013-07-27 01:07:00,
2013-07-26 21:12:00,61.8,61.5,29.82,NNE,28,0.0,6.0,99,0.00,,,2.00,0,Wunderground v.1.15,2013-07-27 01:12:00,
2013-07-26 21:17:00,61.7,61.4,29.82,NNE,12,0.0,6.0,99,0.00,,,2.00,0,Wunderground v.1.15,2013-07-27 01:17:00,
2013-07-26 21:22:00,61.7,61.4,29.82,NNE,12,0.0,6.0,99,0.00,,,2.00,0,Wunderground v.1.15,2013-07-27 01:22:00,
2013-07-26 21:28:00,61.7,61.4,29.82,NNE,12,0.0,6.0,99,0.00,,,2.00,0,Wunderground v.1.15,2013-07-27 01:28:00,
2013-07-26 21:34:00,61.6,61.3,29.82,SE,124,0.0,6.0,99,0.00,,,2.00,0,Wunderground v.1.15,2013-07-27 01:34:00,
2013-07-26 21:39:00,61.7,61.4,29.82,SSE,152,0.0,6.0,99,0.00,,,2.00,0,Wunderground v.1.15,2013-07-27 01:39:00,
2013-07-26 21:45:00,61.7,61.4,29.82,NE,42,0.0,6.0,99,0.00,,,2.00,0,Wunderground v.1.15,2013-07-27 01:45:00,
2013-07-26 21:50:00,61.7,61.4,29.82,NE,42,0.0,6.0,99,0.00,,,2.00,0,Wunderground v.1.15,2013-07-27 01:50:00,
2013-07-26 21:56:00,61.7,61.4,29.81,NE,42,0.0,6.0,99,0.00,,,2.00,0,Wunderground v.1.15,2013-07-27 01:56:00,
2013-07-26 22:01:00,61.7,61.4,29.81,NE,42,0.0,6.0,99,0.00,,,2.00,0,Wunderground v.1.15,2013-07-27 02:01:00,
2013-07-26 22:06:00,61.6,61.3,29.82,NE,42,0.0,6.0,99,0.00,,,2.00,0,Wunderground v.1.15,2013-07-27 02:06:00,
2013-07-26 22:12:00,61.6,61.3,29.81,NE,42,0.0,6.0,99,0.00,,,2.00,0,Wunderground v.1.15,2013-07-27 02:12:00,
2013-07-26 22:17:00,61.7,61.4,29.82,NE,42,0.0,6.0,99,0.00,,,2.00,0,Wunderground v.1.15,2013-07-27 02:17:00,
2013-07-26 22:23:00,61.7,61.4,29.82,NE,42,0.0,6.0,99,0.00,,,2.00,0,Wunderground v.1.15,2013-07-27 02:23:00,
2013-07-26 22:28:00,61.8,61.5,29.83,NE,42,0.0,6.0,99,0.00,,,2.00,0,Wunderground v.1.15,2013-07-27 02:28:00,
2013-07-26 22:33:00,61.8,61.5,29.83,SSE,160,0.0,6.0,99,0.00,,,2.00,0,Wunderground v.1.15,2013-07-27 02:33:00,
2013-07-26 22:39:00,61.8,61.5,29.82,SSE,160,0.0,6.0,99,0.00,,,2.00,0,Wunderground v.1.15,2013-07-27 02:39:00,
2013-07-26 22:45:00,61.8,61.5,29.81,SSE,160,0.0,6.0,99,0.00,,,2.00,0,Wunderground v.1.15,2013-07-27 02:45:00,
2013-07-26 22:50:00,61.8,61.5,29.82,SSE,160,0.0,6.0,99,0.00,,,2.00,0,Wunderground v.1.15,2013-07-27 02:50:00,
2013-07-26 22:56:00,61.8,61.5,29.82,SSE,160,0.0,6.0,99,0.00,,,2.00,0,Wunderground v.1.15,2013-07-27 02:56:00,
2013-07-26 23:02:00,61.7,61.4,29.82,SSE,160,0.0,6.0,99,0.00,,,2.00,0,Wunderground v.1.15,2013-07-27 03:02:00,
2013-07-26 23:08:00,61.7,61.4,29.83,NNW,339,0.0,6.0,99,0.00,,,2.00,0,Wunderground v.1.15,2013-07-27 03:08:00,
2013-07-26 23:13:00,61.5,61.2,29.83,NW,315,0.0,6.0,99,0.00,,,2.00,0,Wunderground v.1.15,2013-07-27 03:13:00,
2013-07-26 23:19:00,61.4,61.1,29.83,WSW,239,0.0,6.0,99,0.00,,,2.00,0,Wunderground v.1.15,2013-07-27 03:19:00,
2013-07-26 23:25:00,61.4,61.1,29.83,South,180,0.0,6.0,99,0.00,,,2.00,0,Wunderground v.1.15,2013-07-27 03:25:00,
2013-07-26 23:31:00,61.3,61.0,29.83,South,182,0.0,6.0,99,0.00,,,2.00,0,Wunderground v.1.15,2013-07-27 03:31:00,
2013-07-26 23:37:00,61.4,61.1,29.82,South,181,1.0,6.0,99,0.00,,,2.00,0,Wunderground v.1.15,2013-07-27 03:37:00,
2013-07-26 23:43:00,61.1,60.8,29.82,SSW,192,2.0,6.0,99,0.00,,,2.00,0,Wunderground v.1.15,2013-07-27 03:43:00,
2013-07-26 23:48:00,60.9,60.6,29.83,South,178,3.0,6.0,99,0.00,,,2.00,0,Wunderground v.1.15,2013-07-27 03:48:00,
2013-07-26 23:54:00,60.7,60.4,29.83,South,174,3.0,9.0,99,0.00,,,2.00,0,Wunderground v.1.15,2013-07-27 03:54:00,